Tracking 26321 objects as of 27-Nov-2022
HD Live streaming from Space Station
objects crossing your sky now

STARLINK-5174

Track STARLINK-5174 now!
10-day predictions
STARLINK-5174 is classified as:


NORAD ID: 54067
Int'l Code: 2022-136S
Perigee: 473.6 km
Apogee: 475.6 km
Inclination: 53.2 °
Period: 93.9 minutes
Semi major axis: 6845 km
RCS: Unknown
Launch date: October 20, 2022
Source: United States (US)
Launch site: AIR FORCE EASTERN TEST RANGE (AFETR)
aabbcc
Your satellite tracking list
Your tracking list is empty




NASA's NSSDC Master Catalog

Two Line Element Set (TLE):
1 54067U 22136S   22331.58334491 -.01248890  00000-0 -42348-1 0  9990
2 54067  53.2167 323.1759 0001435  41.1688 283.6741 15.32807502  6447
Source of the keplerian elements: AFSPC